Terminal Aerodrome Forecast
Issued by NWS Cheyenne, WY

Home | Current Version | Previous Version | Text Only | Print | Product List | Glossary On
Versions: 1 2 3 4 5 6 7 8 9 10 11 12 13 14 15 16 17 18 19 20 21 22 23 24 25 26 27 28 29 30 31 32 33 34 35 36 37 38 39 40
000
FTUS45 KCYS 272300
TAFCYS
TAF
KCYS 272322Z 2800/2824 36010G20KT P6SM VCTS SCT040CB BKN060
      TEMPO 2800/2802 VRB20G35KT 5SM TSRA BKN040CB
     FM280300 31010KT P6SM VCSH BKN045
     FM281500 34012KT P6SM BKN045=

USA.gov is the U.S. government's official web portal to all federal, state and local government web resources and services.